Location: Dob?e?
(49.9411°N, 15.1496°E)
Time: 10:44:45
(UTC+00:00)

DELFI C3 - Visible Passes

Search period start: 23 October 2021 00:00
Search period end: 02 November 2021 00:00
Orbit: 528 x 546 km, 97.4° (Epoch: 22 October)

Date Brightness Start Highest point End Pass type
(mag) Time Alt. Az. Time Alt. Az. Time Alt. Az.
23 Oct ? 17:04:03 18° E 17:05:31 23° ENE 17:08:35 10° NNE visible
23 Oct ? 18:39:31 35° WSW 18:39:52 35° W 18:43:27 10° NNW visible
24 Oct ? 16:55:58 16° E 16:57:22 20° ENE 17:00:10 10° NNE visible
24 Oct ? 18:31:26 43° WSW 18:31:36 43° W 18:35:19 10° NNW visible
25 Oct ? 16:47:53 14° E 16:49:13 17° ENE 16:51:42 10° NNE visible
25 Oct ? 18:23:20 54° W 18:23:21 54° W 18:27:09 10° NNW visible
26 Oct ? 16:39:46 12° E 16:41:04 14° ENE 16:43:08 10° NNE visible
26 Oct ? 18:15:14 66° W 18:15:14 66° W 18:18:57 10° NNW visible
27 Oct ? 16:31:39 11° ENE 16:32:55 12° ENE 16:34:26 10° NE visible
27 Oct ? 18:07:07 75° NW 18:07:07 75° NW 18:10:43 10° NNW visible
28 Oct ? 16:24:27 10° ENE 16:24:47 10° ENE 16:25:07 10° NE visible
28 Oct ? 17:59:00 69° N 17:59:00 69° N 18:02:28 10° NNW visible
29 Oct ? 17:50:52 58° NNE 17:50:52 58° NNE 17:54:12 10° N visible
29 Oct ? 19:26:19 12° WNW 19:26:19 12° WNW 19:27:01 10° WNW visible
30 Oct ? 17:42:44 47° NE 17:42:44 47° NE 17:45:53 10° N visible
30 Oct ? 19:18:11 13° WNW 19:18:11 13° WNW 19:19:16 10° NW visible
31 Oct ? 17:34:35 39° NE 17:34:35 39° NE 17:37:33 10° N visible
31 Oct ? 19:10:02 15° WNW 19:10:02 15° WNW 19:11:20 10° NW visible
01 Nov ? 17:26:25 32° NE 17:26:25 32° NE 17:29:12 10° N visible
01 Nov ? 19:01:52 17° WNW 19:01:52 17° WNW 19:03:18 10° NW visible
